Flag for Barbados Weather past 2 weeks in Bridgetown, Barbados

Now
81 °F

Broken clouds.


Feels Like: 87 °F
Forecast: 79 / 86 °F
Wind: 7 mph from Southeast

Location: Grantley Adams

Current Time: Aug 27, 2014 at 3:55:22 PM

Latest Report: Aug 27, 2014 at 3:00 PM


Visibility: N/A

Pressure: 29.89 "Hg

Humidity: 89%

Dew point: 77 °F

Location of BridgetownLocation

Historic Weather in Bridgetown — Graph

°F

Bridgetown temperature yesterday

Maximum temperature yesterday: 88 °F (at 2:00 PM)
Minimum temperature yesterday: 81 °F (at 12:00 AM)
Average temperature yesterday: 82 °F

Past Weeks' High & Low Weather Summary

 TemperatureHumidityPressure
High88 °F (Aug 13, 12:00 PM)100% (Aug 27, 9:00 AM)30.04 "Hg (Aug 27, 9:00 AM)
Low79 °F (Aug 14, 11:00 PM)66% (Aug 13, 12:00 PM)29.83 "Hg (Aug 21, 2:00 PM)
Average82 °F81%29.93 "Hg
* Reported Aug 12 2:00 PM — Aug 27 2:00 PM, Bridgetown, Weather by CustomWeather, © 2014

Note: Actual official high and low records may vary slightly from our data, if they occured in-between our weather recording intervals... More about our weather records

Advertising

Bridgetown weather history for previous 24 hours

 ConditionsComfort  
Time TempWeatherWind HumidityBarometerVisibility
2:00 PM
Aug 27
81 °FScattered clouds.6 mph89%29.92 "HgN/A
1:00 PM81 °FBroken clouds.3 mph89%29.92 "HgN/A
12:00 PM81 °FScattered showers. Broken clouds.3 mph94%29.95 "HgN/A
11:00 AM79 °FThunderstorms. Broken clouds.5 mph100%29.95 "Hg5 mi
10:00 AM81 °FThunderstorms. Broken clouds.7 mph94%29.95 "Hg4 mi
9:00 AM79 °FThunderstorms. Broken clouds.5 mph100%29.95 "Hg4 mi
8:00 AM79 °FThunderstorms. Broken clouds.13 mph94%29.95 "Hg2 mi
7:00 AM81 °FSprinkles. Broken clouds.14 mph94%29.92 "HgN/A
6:00 AM81 °FBroken clouds.8 mph79%29.89 "HgN/A
5:00 AM81 °FPassing clouds.17 mph84%29.89 "HgN/A
4:00 AM81 °FPassing clouds.14 mph89%29.86 "HgN/A
3:00 AM81 °FPassing clouds.17 mph94%29.86 "HgN/A
2:00 AM81 °FSprinkles. Passing clouds.16 mph84%29.89 "HgN/A
1:00 AM81 °FRain showers. Partly cloudy.23 mph94%29.92 "HgN/A
12:00 AM79 °FPassing clouds.23 mph89%29.92 "HgN/A
11:00 PM
Aug 26
81 °FRain showers. Passing clouds.22 mph89%29.95 "HgN/A
10:00 PM81 °FScattered showers. Partly cloudy.15 mph94%29.95 "HgN/A
9:00 PM81 °FScattered showers. Partly cloudy.15 mph94%29.95 "HgN/A
8:00 PM82 °FSprinkles. Partly cloudy.24 mph79%29.95 "HgN/A
7:00 PM82 °FPartly cloudy.24 mph84%29.92 "HgN/A
6:00 PM81 °FPartly sunny.22 mph89%29.92 "HgN/A
5:00 PM84 °FSprinkles. Scattered clouds.23 mph74%29.89 "HgN/A
4:00 PM82 °FScattered clouds.18 mph84%29.89 "HgN/A
3:00 PM86 °FBroken clouds.22 mph70%29.89 "HgN/A
Weather by CustomWeather, © 2014

See weather overviewHow to use our weather pages